Regional Weather Roundup
Issued by NWS

Home | Current Version | Previous Version | Text Only | Print | Product List | Glossary Off
Versions: 1 2 3 4 5 6 7 8 9 10 11 12 13 14 15 16 17 18 19 20 21 22 23 24 25 26 27 28 29 30 31 32 33 34 35 36 37 38 39 40 41 42 43 44 45 46 47 48 49 50

000
ASUS45 KCYS 230210
RWRWY

WYOMING REGIONAL WEATHER ROUNDUP
NATIONAL WEATHER SERVICE CHEYENNE WY
800 PM MDT FRI MAY 22 2015

NOTE:  "FAIR" INDICATES FEW OR NO CLOUDS BELOW 12,000 FEET
WITH NO SIGNIFICANT WEATHER AND/OR OBSTRUCTIONS TO VISIBILITY.

WYZ001-230300-
YELLOWSTONE NATIONAL PARK

CITY           SKY/WX    TMP DP  RH WIND       PRES   REMARKS
LK YELLOWSTONE   N/A     42  38  85 VRB3      30.02R
W YELLOWSTONE  NOT AVBL

$$
WYZ002>013-054>058-071-098>099-230300-
NORTHERN WYOMING

CITY           SKY/WX    TMP DP  RH WIND       PRES   REMARKS
JACKSON        LGT RAIN  46  45  93 SW12      29.96R
CODY           CLOUDY    50  46  87 CALM      29.96R
GREYBULL       CLOUDY    60  49  66 W8        29.90R
WORLAND        MOCLDY    54  49  83 E5        29.90R
SHERIDAN       CLOUDY    54  45  71 SE23G36   29.94R
BUFFALO        CLOUDY    49  47  93 S13       30.00S
GILLETTE       CLOUDY    50  41  71 SE20G28   30.01R
HULETT         CLOUDY    54  43  66 E6        30.03S
NEWCASTLE      CLOUDY    48  41  76 SE13G18   30.07R

$$
WYZ014>020-022>026-101>103-230300-
CENTRAL WYOMING

CITY           SKY/WX    TMP DP  RH WIND       PRES   REMARKS
BIG PINEY      LGT RAIN  44  41  89 S6        29.98S
PINEDALE       CLOUDY    43  41  93 S7        29.99R
DUBOIS         MOCLDY    46  37  71 SE7       29.96S
LANDER         CLOUDY    50  45  83 CALM      29.91R
RIVERTON       LGT RAIN  50  47  89 NE8       29.93R
CASPER         CLOUDY    48  44  86 E14       29.95S
DOUGLAS        CLOUDY    47  43  86 SE12      30.01R

$$
WYZ021-027>030-104>119-230300-
SOUTHERN WYOMING

CITY           SKY/WX    TMP DP  RH WIND       PRES   REMARKS
EVANSTON       LGT RAIN  44  40  85 CALM      29.99R
KEMMERER       DRIZZLE   41  39  93 SW6       29.99S
FORT BRIDGER   CLOUDY    43  43 100 W5        30.02R
ROCK SPRINGS   RAIN      43  39  86 SW20      29.98R FOG
DIXON          FAIR      48  40  71 E5        30.00S
RAWLINS        MOCLDY    48  37  65 W13       29.97S
SARATOGA       MOCLDY    46  41  81 CALM      30.00R
LARAMIE        RAIN      42  40  92 SE22G30   30.03R
CHEYENNE       CLOUDY    46  42  86 SE7       30.03S FOG
TORRINGTON     LGT RAIN  47  45  93 E16       30.03R
PINE BLUFFS    CLOUDY    45  45 100 SE8       30.04S

$$


USA.gov is the U.S. government's official web portal to all federal, state and local government web resources and services.